Weather History for Reno, NV

Change the Weather History Date:

Wednesday, April 16, 2014

  Actual Average Record
Temperature  
Mean Temperature 60 °F 51 °F  
Max Temperature 73 °F 64 °F 83 °F (1947)
Min Temperature 47 °F 38 °F 17 °F (1896)
Degree Days  
Heating Degree Days 5 14  
Month to date heating degree days 175 253  
Since 1 July heating degree days 4269 4489  
Cooling Degree Days 0 0  
Month to date cooling degree days 0 0  
Year to date cooling degree days 0 0  
Growing Degree Days 10 (Base 50)    
Moisture  
Dew Point 26 °F    
Average Humidity 38    
Maximum Humidity 58    
Minimum Humidity 17    
Precipitation  
Precipitation 0.00 in 0.01 in 0.50 in (1970)
Month to date precipitation T 0.25  
Year to date precipitation 1.15 3.06  
Snow  
Snow 0.00 in 0.10 in 2.00 in (1920)
Month to date snowfall T 0.4  
Since 1 July snowfall 6.2 21.4  
Snow Depth 0.00 in    
Sea Level Pressure  
Sea Level Pressure 29.87 in    
Wind  
Wind Speed 6 mph (NNW)    
Max Wind Speed 16 mph    
Max Gust Speed 20 mph    
Visibility 10 miles    
Events      
T = Trace of Precipitation, MM = Missing Value Source: NWS Daily Summary

Daily Weather History Graph

Daily Weather History Graph

Search for Another Location

Airport:

Trip Planner

Search our weather history database for the weather conditions in past years. The results will help you decide how hot, cold, wet, or windy it might be!

Date:

Astronomy

Apr. 16, 2014 Rise Set
Actual Time 6:20 AM PDT 7:38 PM PDT
Civil Twilight 5:52 AM PDT 8:06 PM PDT
Nautical Twilight 5:18 AM PDT 8:39 PM PDT
Astronomical Twilight 4:43 AM PDT 9:14 PM PDT
Moon 9:26 PM PDT (4/16) 7:11 AM PDT (4/16)
Length of Visible Light 14h 13m
Length of Day
13h 17m
Full, 98% of the Moon is Illuminated
Apr 16
Full
Apr 22
Last Quarter
Apr 28
New
May 6
First Quarter
May 14
Full

Hourly Weather History & Observations

Time (PDT) Temp. Dew Point Humidity Pressure Visibility Wind Dir Wind Speed Gust Speed Precip Events Conditions
12:55 AM 57.0 °F 24.1 °F 28% 29.86 in 10.0 mi North 10.4 mph - N/A   Mostly Cloudy
1:55 AM 55.0 °F 23.0 °F 29% 29.86 in 10.0 mi North 3.5 mph - N/A   Partly Cloudy
2:55 AM 54.0 °F 21.0 °F 28% 29.87 in 10.0 mi NNE 4.6 mph - N/A   Partly Cloudy
3:55 AM 48.9 °F 26.1 °F 41% 29.88 in 10.0 mi SSW 3.5 mph - N/A   Partly Cloudy
4:55 AM 51.1 °F 30.0 °F 44% 29.88 in 10.0 mi WNW 4.6 mph - N/A   Clear
5:55 AM 48.0 °F 30.9 °F 52% 29.89 in 10.0 mi West 5.8 mph - N/A   Partly Cloudy
6:55 AM 46.9 °F 32.0 °F 56% 29.91 in 10.0 mi WSW 5.8 mph - N/A   Partly Cloudy
7:55 AM 51.1 °F 30.9 °F 46% 29.93 in 10.0 mi West 3.5 mph - N/A   Partly Cloudy
8:55 AM 54.0 °F 27.0 °F 35% 29.92 in 10.0 mi Calm Calm - N/A   Partly Cloudy
9:55 AM 57.9 °F 23.0 °F 26% 29.92 in 10.0 mi Calm Calm - N/A   Mostly Cloudy
10:55 AM 62.1 °F 21.9 °F 21% 29.91 in 10.0 mi ENE 5.8 mph - N/A   Mostly Cloudy
11:55 AM 64.0 °F 23.0 °F 21% 29.89 in 10.0 mi Variable 3.5 mph - N/A   Mostly Cloudy
12:55 PM 66.9 °F 24.1 °F 20% 29.86 in 10.0 mi WSW 8.1 mph - N/A   Scattered Clouds
1:55 PM 68.0 °F 24.1 °F 19% 29.84 in 10.0 mi SE 8.1 mph - N/A   Scattered Clouds
2:55 PM 72.0 °F 24.1 °F 17% 29.81 in 10.0 mi NNE 8.1 mph - N/A   Mostly Cloudy
3:55 PM 71.1 °F 24.1 °F 17% 29.81 in 10.0 mi Variable 5.8 mph - N/A   Mostly Cloudy
4:55 PM 72.0 °F 24.1 °F 17% 29.79 in 10.0 mi NE 12.7 mph 18.4 mph N/A   Mostly Cloudy
5:55 PM 71.1 °F 24.1 °F 17% 29.80 in 10.0 mi NE 12.7 mph - N/A   Mostly Cloudy
6:55 PM 69.1 °F 25.0 °F 19% 29.82 in 10.0 mi NNE 10.4 mph - N/A   Mostly Cloudy
7:55 PM 66.9 °F 25.0 °F 21% 29.83 in 10.0 mi North 11.5 mph - N/A   Scattered Clouds
8:55 PM 63.0 °F 25.0 °F 24% 29.86 in 10.0 mi NNE 3.5 mph - N/A   Partly Cloudy
9:55 PM 61.0 °F 26.1 °F 26% 29.88 in 10.0 mi SSW 6.9 mph - N/A   Clear
10:55 PM 57.9 °F 28.9 °F 33% 29.88 in 10.0 mi WNW 3.5 mph - N/A   Clear
11:55 PM 57.0 °F 28.9 °F 34% 29.88 in 10.0 mi Calm Calm - N/A   Clear